TimeAEST,TemperatureF,Dew PointF,Humidity,Sea Level PressureIn,VisibilityMPH,Wind Direction,Wind SpeedMPH,Gust SpeedMPH,PrecipitationIn,Events,Conditions,WindDirDegrees,DateUTC
12:00 AM,73,59,53,30.04,,NE,8.1,,,,,50,2013-10-10 14:00:00
12:00 AM,73.4,59.0,61,30.04,-9999.0,NE,8.1,-,N/A,,Unknown,50,2013-10-10 14:00:00
12:30 AM,73.4,60.8,65,30.04,-9999.0,NE,9.2,-,N/A,,Unknown,50,2013-10-10 14:30:00
1:00 AM,71.6,60.8,69,30.01,-9999.0,NE,5.8,-,N/A,,Unknown,40,2013-10-10 15:00:00
1:30 AM,71.6,60.8,69,30.01,-9999.0,NNE,8.1,-,N/A,,Unknown,30,2013-10-10 15:30:00
2:00 AM,73.4,60.8,65,29.98,-9999.0,NE,10.4,-,N/A,,Unknown,40,2013-10-10 16:00:00
2:30 AM,71.6,60.8,69,29.98,-9999.0,NNE,8.1,-,N/A,,Unknown,30,2013-10-10 16:30:00
3:00 AM,72,61,60,29.98,,NE,8.1,,,,,40,2013-10-10 17:00:00
3:00 AM,71.6,60.8,69,29.98,-9999.0,NE,8.1,-,N/A,,Unknown,40,2013-10-10 17:00:00
3:30 AM,71.6,60.8,69,29.98,-9999.0,NNE,5.8,-,N/A,,Unknown,30,2013-10-10 17:30:00
4:00 AM,71.6,59.0,64,29.98,-9999.0,ENE,4.6,-,N/A,,Unknown,60,2013-10-10 18:00:00
4:30 AM,71.6,59.0,64,29.98,-9999.0,North,4.6,-,N/A,,Unknown,10,2013-10-10 18:30:00
5:00 AM,71.6,62.6,73,30.01,-9999.0,Calm,Calm,-,N/A,,Unknown,0,2013-10-10 19:00:00
5:30 AM,71.6,60.8,69,30.01,-9999.0,Calm,Calm,-,N/A,,Unknown,0,2013-10-10 19:30:00
6:00 AM,72,60,56,30.02,,Calm,Calm,,,,,,2013-10-10 20:00:00
6:00 AM,73.4,59.0,61,30.01,-9999.0,Calm,Calm,-,N/A,,Unknown,0,2013-10-10 20:00:00
6:30 AM,71.6,64.4,78,30.01,-9999.0,North,4.6,-,N/A,,Unknown,350,2013-10-10 20:30:00
7:00 AM,73.4,62.6,69,30.04,-9999.0,NW,3.5,-,N/A,,Unknown,320,2013-10-10 21:00:00
7:30 AM,75.2,59.0,57,30.04,-9999.0,NNW,5.8,-,N/A,,Unknown,340,2013-10-10 21:30:00
8:00 AM,77.0,59.0,54,30.04,-9999.0,WNW,4.6,-,N/A,,Unknown,290,2013-10-10 22:00:00
8:30 AM,78.8,59.0,51,30.04,-9999.0,South,3.5,-,N/A,,Unknown,180,2013-10-10 22:30:00
9:00 AM,78,58,40,30.05,,SE,5.8,,,,,140,2013-10-10 23:00:00
9:00 AM,78.8,59.0,51,30.04,-9999.0,SE,5.8,-,N/A,,Unknown,140,2013-10-10 23:00:00
9:30 AM,78.8,59.0,51,30.04,-9999.0,ESE,5.8,-,N/A,,Unknown,120,2013-10-10 23:30:00
10:00 AM,82.4,62.6,51,30.04,-9999.0,South,6.9,-,N/A,,Unknown,180,2013-10-11 00:00:00
10:30 AM,82.4,60.8,48,30.04,-9999.0,South,5.8,-,N/A,,Unknown,190,2013-10-11 00:30:00
11:00 AM,82.4,62.6,51,30.01,-9999.0,SSE,5.8,-,N/A,,Unknown,150,2013-10-11 01:00:00
11:30 AM,80.6,59.0,48,29.98,-9999.0,WSW,9.2,-,N/A,,Unknown,250,2013-10-11 01:30:00
12:00 PM,81,61,40,29.98,,West,8.1,,,,,260,2013-10-11 02:00:00
12:00 PM,80.6,60.8,51,29.98,-9999.0,West,8.1,-,N/A,,Unknown,260,2013-10-11 02:00:00
12:30 PM,82.4,60.8,48,29.98,-9999.0,WSW,8.1,-,N/A,,Unknown,240,2013-10-11 02:30:00
1:00 PM,80.6,60.8,51,29.95,-9999.0,WSW,8.1,-,N/A,,Unknown,240,2013-10-11 03:00:00
1:30 PM,80.6,62.6,54,29.95,-9999.0,NW,5.8,-,N/A,,Unknown,310,2013-10-11 03:30:00
1:52 PM,80.6,60.8,51,29.95,-9999.0,NE,17.3,-,N/A,,Unknown,50,2013-10-11 03:52:00
2:00 PM,80.6,60.8,51,29.95,-9999.0,NE,16.1,-,N/A,,Unknown,50,2013-10-11 04:00:00
2:30 PM,82.4,59.0,45,29.92,-9999.0,NE,13.8,-,N/A,,Unknown,40,2013-10-11 04:30:00
3:00 PM,81,58,36,29.93,,NE,15.0,,,,,40,2013-10-11 05:00:00
3:00 PM,80.6,59.0,48,29.92,-9999.0,NE,15.0,-,N/A,,Unknown,40,2013-10-11 05:00:00
3:30 PM,78.8,59.0,51,29.92,-9999.0,NE,15.0,-,N/A,,Unknown,50,2013-10-11 05:30:00
4:00 PM,78.8,59.0,51,29.92,-9999.0,North,15.0,-,N/A,,Unknown,10,2013-10-11 06:00:00
4:30 PM,78.8,59.0,51,29.92,-9999.0,NE,17.3,-,N/A,,Unknown,50,2013-10-11 06:30:00
5:00 PM,77.0,59.0,54,29.92,-9999.0,NE,16.1,-,N/A,,Unknown,50,2013-10-11 07:00:00
5:30 PM,77.0,60.8,57,29.92,-9999.0,NE,12.7,-,N/A,,Unknown,50,2013-10-11 07:30:00
6:00 PM,76,60,48,29.95,,NE,10.4,,,,,40,2013-10-11 08:00:00
6:00 PM,75.2,60.8,61,29.95,-9999.0,NE,10.4,-,N/A,,Unknown,40,2013-10-11 08:00:00
6:30 PM,75.2,60.8,61,29.95,-9999.0,NNE,9.2,-,N/A,,Unknown,30,2013-10-11 08:30:00
7:00 PM,75.2,62.6,65,29.95,-9999.0,NNE,8.1,-,N/A,,Unknown,20,2013-10-11 09:00:00
7:30 PM,75.2,62.6,65,29.98,-9999.0,NNE,6.9,-,N/A,,Unknown,20,2013-10-11 09:30:00
8:00 PM,73.4,62.6,69,29.98,-9999.0,North,5.8,-,N/A,,Unknown,10,2013-10-11 10:00:00
8:30 PM,73.4,62.6,69,29.98,-9999.0,North,5.8,-,N/A,,Unknown,360,2013-10-11 10:30:00
9:00 PM,73,62,61,30.00,,North,5.8,,,,,0,2013-10-11 11:00:00
9:00 PM,73.4,62.6,69,29.98,-9999.0,North,5.8,-,N/A,,Unknown,360,2013-10-11 11:00:00
9:30 PM,73.4,62.6,69,30.01,-9999.0,North,6.9,-,N/A,,Unknown,360,2013-10-11 11:30:00
10:00 PM,73.4,62.6,69,30.01,-9999.0,North,8.1,-,N/A,,Unknown,350,2013-10-11 12:00:00
10:30 PM,73.4,62.6,69,30.01,-9999.0,North,8.1,-,N/A,,Unknown,350,2013-10-11 12:30:00
11:00 PM,73.4,64.4,73,29.98,-9999.0,North,8.1,-,N/A,,Unknown,350,2013-10-11 13:00:00
11:30 PM,71.6,64.4,78,29.98,-9999.0,North,8.1,-,N/A,,Unknown,360,2013-10-11 13:30:00